FENGYUN 1C DEB, 31820

Orbit data source: Space-Track

FENGYUN 1C DEB, 31820 is space debris in SSO originally from a launch on Mon, 10 May 1999 UTC launched from the Taiyaun Space Center, China (TSC). Fengyun 1C debris stems from the Chinese weather satellite Fengyun-1C, which was intentionally destroyed by a Chinese anti-satellite missile in 2007. This event dramatically increased the amount of space debris, with thousands of trackable fragments posing hazards to satellites and human spaceflight. The Fengyun 1C debris cloud has become a focal point in discussions about space sustainability and the need for international regulations to prevent the creation of new debris.

Loading next visibility...
Identifier
31820, 1999-025CHJ
Orbit
SSO
Country
Flag of CNCN / PRC
Related business
Manufacturer
Unknown
Mission
Spacecraft
Bus & Motor
Unknown
Mass
Unknown
Launch date (UTC)
1999-05-10 (26 years ago)
Launch vehicle
Unknown
Launch site
Taiyaun Space Center, China (TSC)
Object type
Payload
Rocket body
Debris
Shape & HBR
Unknown shape, 0.1 m
Radar Cross Section
Small (<0.1 m²)

Expand to show TLE details & history
Last TLE update: 2 days ago

TLE from 2 days ago
0 FENGYUN 1C DEB
1 31820U 99025CHJ 25308.90563460  .00019313  00000-0  15716-2 0  9999
2 31820  98.9596 114.7019 0153774 133.2810 228.1352 14.90728212976922
Epoch: 2025-11-04T21:44Z
TLE epoch observation values (Epoch: 2025-11-04T21:44:06.829Z)
Latitude
-0.0001°
Longitude
104.28751°
Altitude
671.152 km
Speed
7.482 km/s
True Right ascension
07h 38m 48s
True Declination
0° 00' 00"
Sunlit
Object was in daylight at epoch
Visualization orbit readout
Latitude
Unknown
Longitude
Unknown
Altitude
Unknown
Speed
Unknown
Apparent Right ascension
Unknown
Apparent Declination
Unknown
Sunlit
N/A
Visualization observer readout
Local Sidereal Time
14:08:43
Azimuth
Unknown
Elevation
Unknown
Doppler factor
Unknown
Orbital elements
Apogee altitude
699.934 km
Perigee altitude
485.546 km
Semi-major axis
6,970.877 km
Eccentricity
0.01538
Inclination
98.9596°
RAAN
114.7019°
Arg. of periapsis
133.281°
True anomaly
226.83965°
Mean anomaly
228.1352°
Eccentric anomaly
227.48576°
Mean motion
3.72917 °/min
Orbital period
96.54 mins
BSTAR
0.0015716
Loading maneuver chart data...
Computing Atmospheric mass density...

Documentation

Showing up to 5 results
|